When you browse on this site, cookies collect data to enhance your experience and personalize the content and advertising you see.
Visit our Privacy Policy to learn more. By continuing to use the site, you agree to this use of cookies and data.
  • In Hungary
  • List of Countries
  • For 7 days
  • Water Temperature
  • Satellite Maps
  • Weather Map
  • News
  • Weather Widgets
  • user-avatar
    Login

    Hourly Weather Wiercien

    Today, 21 May, Tuesday

    Time Temperature Precipitation Wind Pressure Humidity
    00:00 +13°C° 0 mm 2 mps 740 mmHg 90%
    01:00 +12°C° 0 mm 2 mps 740 mmHg 91%
    02:00 +12°C° 0 mm 2 mps 740 mmHg 92%
    03:00 +12°C° 0 mm 2 mps 740 mmHg 92%
    04:00 +11°C° 0 mm 1 mps 740 mmHg 93%
    05:00 +13°C° 0 mm 1 mps 740 mmHg 87%
    06:00 +15°C° 0 mm 2 mps 740 mmHg 82%
    07:00 +16°C° 0 mm 2 mps 740 mmHg 77%
    08:00 +17°C° 0 mm 2 mps 740 mmHg 72%
    09:00 +19°C° 0 mm 2 mps 741 mmHg 68%
    10:00 +20°C° 0 mm 2 mps 741 mmHg 63%
    11:00 +21°C° 0 mm 2 mps 740 mmHg 61%
    12:00 +21°C° 0 mm 2 mps 740 mmHg 58%
    13:00 +23°C° 0 mm 2 mps 740 mmHg 55%
    14:00 +23°C° 0 mm 2 mps 740 mmHg 55%
    15:00 +23°C° 0 mm 2 mps 740 mmHg 55%
    16:00 +23°C° 0 mm 1 mps 740 mmHg 56%
    17:00 +22°C° 0 mm 1 mps 739 mmHg 62%
    18:00 +21°C° 0 mm 1 mps 739 mmHg 68%
    19:00 +20°C° 0 mm 1 mps 739 mmHg 74%
    20:00 +18°C° 0.5 mm 2 mps 740 mmHg 78%
    21:00 +16°C° 0.5 mm 2 mps 740 mmHg 82%
    22:00 +14°C° 0.5 mm 3 mps 740 mmHg 87%
    23:00 +14°C° 1.5 mm 3 mps 740 mmHg 89%

    Tomorrow, 22 May, Wednesday

    Time Temperature Precipitation Wind Pressure Humidity
    00:00 +14°C° 1.5 mm 4 mps 740 mmHg 92%
    01:00 +14°C° 1.5 mm 5 mps 740 mmHg 95%
    02:00 +14°C° 1.4 mm 5 mps 740 mmHg 95%
    03:00 +14°C° 1.4 mm 6 mps 740 mmHg 95%
    04:00 +14°C° 1.4 mm 6 mps 741 mmHg 96%
    05:00 +14°C° 0.6 mm 7 mps 741 mmHg 95%
    06:00 +14°C° 0.6 mm 7 mps 741 mmHg 94%
    07:00 +14°C° 0.6 mm 7 mps 741 mmHg 94%
    08:00 +14°C° 0.2 mm 7 mps 742 mmHg 93%
    09:00 +14°C° 0.2 mm 7 mps 742 mmHg 93%
    10:00 +15°C° 0.2 mm 7 mps 743 mmHg 93%
    11:00 +15°C° 0.3 mm 7 mps 743 mmHg 93%
    12:00 +15°C° 0.3 mm 7 mps 743 mmHg 93%
    13:00 +15°C° 0.3 mm 7 mps 743 mmHg 92%
    14:00 +14°C° 0.3 mm 7 mps 743 mmHg 93%
    15:00 +13°C° 0.3 mm 8 mps 744 mmHg 93%
    16:00 +12°C° 0.3 mm 8 mps 744 mmHg 93%
    17:00 +12°C° 0.2 mm 8 mps 744 mmHg 94%
    18:00 +12°C° 0.2 mm 7 mps 745 mmHg 94%
    19:00 +12°C° 0.2 mm 7 mps 745 mmHg 94%
    20:00 +12°C° 0.2 mm 7 mps 746 mmHg 94%
    21:00 +13°C° 0.2 mm 6 mps 746 mmHg 94%
    22:00 +13°C° 0.2 mm 6 mps 746 mmHg 94%
    23:00 +13°C° 0.3 mm 6 mps 747 mmHg 94%

    Day after tomorrow, 23 May, Thursday

    Time Temperature Precipitation Wind Pressure Humidity
    00:00 +11°C° 0.3 mm 6 mps 747 mmHg 94%
    01:00 +11°C° 0.3 mm 6 mps 747 mmHg 94%
    02:00 +10°C° 0.2 mm 6 mps 748 mmHg 94%
    03:00 +10°C° 0.2 mm 6 mps 748 mmHg 94%
    04:00 +9°C° 0.2 mm 6 mps 748 mmHg 94%
    05:00 +9°C° 0.2 mm 6 mps 749 mmHg 94%
    06:00 +9°C° 0.2 mm 6 mps 749 mmHg 94%
    07:00 +8°C° 0.2 mm 6 mps 749 mmHg 94%
    08:00 +8°C° 0 mm 6 mps 750 mmHg 93%
    09:00 +8°C° 0 mm 6 mps 750 mmHg 92%
    10:00 +8°C° 0 mm 6 mps 750 mmHg 91%
    11:00 +10°C° 0 mm 5 mps 750 mmHg 82%
    12:00 +13°C° 0 mm 4 mps 750 mmHg 73%
    13:00 +15°C° 0 mm 4 mps 750 mmHg 64%
    14:00 +17°C° 0 mm 4 mps 750 mmHg 60%
    15:00 +18°C° 0 mm 4 mps 750 mmHg 55%
    16:00 +19°C° 0 mm 4 mps 750 mmHg 51%
    17:00 +17°C° 0 mm 4 mps 750 mmHg 57%
    18:00 +16°C° 0 mm 3 mps 750 mmHg 62%
    19:00 +15°C° 0 mm 2 mps 749 mmHg 68%
    20:00 +13°C° 0 mm 2 mps 750 mmHg 71%
    21:00 +12°C° 0 mm 2 mps 750 mmHg 73%
    22:00 +10°C° 0 mm 2 mps 750 mmHg 76%
    23:00 +9°C° 0 mm 2 mps 750 mmHg 78%

    24 May, Friday

    Time Temperature Precipitation Wind Pressure Humidity
    00:00 +10°C° 0 mm 1 mps 750 mmHg 80%
    01:00 +9°C° 0 mm 1 mps 750 mmHg 83%
    02:00 +9°C° 0 mm 1 mps 750 mmHg 82%
    03:00 +9°C° 0 mm 1 mps 750 mmHg 82%
    04:00 +9°C° 0 mm 1 mps 749 mmHg 82%
    05:00 +11°C° 0 mm 1 mps 749 mmHg 77%
    06:00 +12°C° 0 mm 1 mps 749 mmHg 73%
    07:00 +14°C° 0 mm 1 mps 749 mmHg 68%
    08:00 +16°C° 0 mm 1 mps 749 mmHg 63%
    09:00 +18°C° 0 mm 1 mps 749 mmHg 57%
    10:00 +20°C° 0 mm 1 mps 749 mmHg 52%
    11:00 +21°C° 0 mm 1 mps 748 mmHg 50%
    12:00 +21°C° 0 mm 1 mps 748 mmHg 48%
    13:00 +22°C° 0 mm 1 mps 747 mmHg 47%
    14:00 +22°C° 0 mm 1 mps 747 mmHg 46%
    15:00 +22°C° 0 mm 1 mps 746 mmHg 46%
    16:00 +22°C° 0 mm 1 mps 746 mmHg 45%
    17:00 +21°C° 0 mm 1 mps 746 mmHg 52%
    18:00 +19°C° 0 mm 2 mps 745 mmHg 59%
    19:00 +17°C° 0 mm 2 mps 745 mmHg 66%
    20:00 +16°C° 0 mm 2 mps 745 mmHg 68%
    21:00 +15°C° 0 mm 2 mps 745 mmHg 71%
    22:00 +13°C° 0 mm 3 mps 745 mmHg 73%
    23:00 +13°C° 0 mm 3 mps 745 mmHg 75%

    25 May, Saturday

    Time Temperature Precipitation Wind Pressure Humidity
    00:00 +14°C° 0 mm 2 mps 745 mmHg 77%
    01:00 +13°C° 0 mm 2 mps 745 mmHg 79%
    02:00 +13°C° 0 mm 2 mps 745 mmHg 81%
    03:00 +13°C° 0 mm 2 mps 744 mmHg 83%
    04:00 +13°C° 0 mm 2 mps 744 mmHg 84%
    05:00 +13°C° 0 mm 3 mps 745 mmHg 81%
    06:00 +14°C° 0 mm 3 mps 745 mmHg 79%
    07:00 +17°C° 0 mm 3 mps 745 mmHg 76%
    08:00 +18°C° 0 mm 4 mps 745 mmHg 71%
    09:00 +19°C° 0 mm 4 mps 745 mmHg 65%
    10:00 +21°C° 0 mm 4 mps 745 mmHg 59%
    11:00 +21°C° 0.1 mm 4 mps 745 mmHg 58%
    12:00 +21°C° 0.1 mm 4 mps 745 mmHg 57%
    13:00 +22°C° 0.1 mm 4 mps 745 mmHg 56%
    14:00 +22°C° 0.4 mm 4 mps 744 mmHg 59%
    15:00 +21°C° 0.4 mm 4 mps 744 mmHg 61%
    16:00 +21°C° 0.4 mm 4 mps 744 mmHg 63%
    17:00 +20°C° 0.3 mm 3 mps 744 mmHg 69%
    18:00 +19°C° 0.3 mm 3 mps 745 mmHg 75%
    19:00 +17°C° 0.3 mm 2 mps 745 mmHg 81%
    20:00 +16°C° 0 mm 2 mps 745 mmHg 83%
    21:00 +15°C° 0 mm 2 mps 745 mmHg 85%
    22:00 +14°C° 0 mm 2 mps 746 mmHg 87%
    23:00 +13°C° 0.2 mm 2 mps 746 mmHg 88%

    26 May, Sunday

    Time Temperature Precipitation Wind Pressure Humidity
    00:00 +13°C° 0.2 mm 1 mps 746 mmHg 89%
    01:00 +12°C° 0.2 mm 0 mps 746 mmHg 90%
    02:00 +12°C° 0 mm 1 mps 746 mmHg 91%
    03:00 +12°C° 0 mm 1 mps 746 mmHg 93%
    04:00 +10°C° 0 mm 2 mps 745 mmHg 94%
    05:00 +12°C° 0 mm 3 mps 746 mmHg 90%
    06:00 +13°C° 0 mm 4 mps 746 mmHg 86%
    07:00 +14°C° 0 mm 4 mps 746 mmHg 82%
    08:00 +15°C° 0.1 mm 5 mps 746 mmHg 76%
    09:00 +16°C° 0.1 mm 6 mps 746 mmHg 70%
    10:00 +17°C° 0.1 mm 7 mps 746 mmHg 63%
    11:00 +17°C° 0 mm 7 mps 746 mmHg 60%
    12:00 +18°C° 0 mm 8 mps 746 mmHg 57%
    13:00 +18°C° 0 mm 8 mps 746 mmHg 53%
    14:00 +17°C° 0 mm 7 mps 746 mmHg 55%
    15:00 +17°C° 0 mm 7 mps 746 mmHg 56%
    16:00 +17°C° 0 mm 6 mps 746 mmHg 57%
    17:00 +16°C° 0 mm 5 mps 746 mmHg 63%
    18:00 +16°C° 0 mm 3 mps 746 mmHg 68%
    19:00 +14°C° 0 mm 2 mps 746 mmHg 73%
    20:00 +13°C° 0 mm 2 mps 746 mmHg 77%
    21:00 +12°C° 0 mm 2 mps 746 mmHg 80%
    22:00 +11°C° 0 mm 1 mps 747 mmHg 83%
    23:00 +10°C° 0 mm 2 mps 746 mmHg 84%
    Show more